Погода в Басани

Украина / Запорожская область     47°23′35″N   36°09′39″E
темп.,
°C
ветер,
м/с
пор.,
м/с
влажн.,
%
обл.,
%
осадки,
мм/ч
давл.,
гПа
погр.,
м
29 июля, чт
чт2900:00+21ююз49575 0.0 1015155
03:00+21юз496298 0.0 1015152
06:00+21юз37701 0.0 1013123
09:00+27зюз57480 0.0 1013613
12:00+31юз56390 0.0 10121613
15:00+33юз553645 0.0 10112865
18:00+29ю694836 0.0 1010426
21:00+21юз3688100 4.8 1012177
30 июля, пт
пт3000:00+22юз4882100 0.3 1011161
03:00+21юз5118588 0.8 1010246
06:00+20ю358416 1.1 101092
09:00+26юз566248 1.1 1010555
12:00+30юз454793 0.0 10101114
15:00+32юз454142 0.0 10081936
18:00+24юз6979100 2.4 1008337
21:00+22юз4778100 8.3 1008114
31 июля, сб
сб3100:00+20св2490100 1.6 100999
03:00+20ссв11897 1.6 100912
06:00+19ссв35910 0.0 1010129
09:00+25ссв4567100 0.0 1010549
12:00+29с45525 0.0 10101333
15:00+30ссв4546100 0.2 10092087
18:00+28с455645 0.1 1010585
21:00+25ссв366346 0.1 1011112
1 августа, вс
вс100:00+24ссв346450 0.0 101090
03:00+22ссв347161 0.0 101177
06:00+21св357932 0.0 1011116
09:00+27св33590 0.0 1011556
12:00+30св33460 0.0 10111656
15:00+32ссв323785 0.0 10102553
18:00+29ююз235679 0.0 101099
21:00+26ссз33575 0.0 101037
2 августа, пн
пн200:00+24ссз11600 0.0 101011
03:00+22с11630 0.0 101011
06:00+22ссв12640 0.0 101011
09:00+29ссз33481 0.0 1010426
12:00+33ссз22340 0.0 10101838
15:00+34зюз23270 0.0 10092527
18:00+34ююз22280 0.0 10072227
21:00+27юз33440 0.0 100923